Dewpoint
14 13 13 13 13 14 13 14 13 12 13 14 14 14 14 15 15 15 15 15 16 16 16 16 16 15 15 15 15 15 14 14 15 15 15 16 16 16 17 17 16 15
14 14 14 14 14 14 14 14 13 13 12 14 15 15 14 15 15 15 15 16 15 15 16 16 16 16 15 15 15 15 14 14 14 14 15 15 16 16 16 16 16 16
14 15 15 15 15 14 14 14 14 13 13 14 15 15 15 15 15 15 16 16 15 16 16 16 16 16 15 15 15 15 15 14 14 14 15 15 15 16 16 16 17 16
15 15 15 15 15 15 15 15 14 14 14 14 14 15 14 14 15 15 16 15 16 16 17 16 16 16 16 16 16 16 15 15 15 15 15 15 15 15 15 16 17 16
15 15 15 15 15 15 15 15 15 14 14 14 14 15 14 14 15 15 16 16 16 16 16 16 16 16 16 16 15 16 15 15 16 15 15 15 15 15 15 16 16 16
15 15 15 15 15 15 15 15 14 14 14 14 15 15 15 15 15 15 15 15 16 16 16 16 16 17 16 16 15 15 16 16 16 15 15 15 15 15 15 16 16 16
15 15 15 15 15 15 14 14 15 15 14 15 15 15 15 15 15 15 15 15 15 16 16 17 17 17 16 16 15 16 16 16 16 16 16 15 15 15 15 16 16 16
15 15 16 16 15 14 14 14 15 14 14 14 15 15 15 16 15 15 15 15 15 15 16 16 16 17 17 16 16 16 16 17 16 16 16 16 16 16 15 15 15 15
15 15 16 16 15 15 15 15 15 14 14 14 15 15 15 16 16 15 15 15 15 16 16 16 16 16 17 16 16 16 16 16 16 16 16 16 16 16 16 15 15 15
16 16 16 17 16 15 15 15 15 14 14 15 15 16 16 16 16 15 15 15 15 15 16 16 16 16 16 16 15 16 15 15 15 15 15 16 16 17 16 16 16 16
16 16 17 17 16 16 16 15 15 15 15 15 16 16 16 16 16 16 15 15 15 16 17 16 16 16 16 16 15 15 16 16 16 16 15 15 16 16 16 15 16 16
16 16 16 16 16 15 15 15 15 15 15 16 16 17 16 16 16 16 16 16 16 17 17 16 16 16 16 16 16 16 16 16 16 15 16 16 16 16 15 16 16 16
14 14 15 16 16 15 15 15 16 16 16 16 16 16 17 17 17 17 17 17 17 17 16 16 17 17 17 17 17 17 17 16 15 15 15 16 16 16 16 16 16 16
13 14 16 17 16 16 16 16 16 16 16 16 16 17 17 17 17 17 17 17 17 16 16 17 17 17 16 17 17 17 16 15 15 15 15 16 16 16 16 16 16 16
16 17 17 16 16 15 15 16 16 16 15 15 16 16 17 17 17 17 17 17 17 16 17 17 17 17 17 17 17 17 16 16 16 16 16 16 16 16 16 16 16 16
17 16 16 15 15 15 15 16 16 16 15 15 15 15 16 17 17 17 17 17 16 16 17 17 17 17 17 17 17 16 16 16 16 16 16 15 15 15 15 15 15 16
16 15 15 15 15 15 15 16 16 15 15 15 15 15 16 17 16 16 16 16 16 17 17 17 17 17 17 17 17 17 16 16 16 16 16 16 16 15 15 16 16 16
15 14 15 15 16 15 15 15 16 16 15 15 15 15 16 16 16 16 16 16 17 17 17 17 17 17 17 17 17 17 16 16 16 16 16 16 16 16 16 16 16 16
14 13 15 16 16 16 15 15 15 16 16 16 16 16 16 17 17 16 16 16 17 17 17 17 17 17 17 17 17 17 17 17 16 16 16 16 16 16 16 16 16 16
13 12 14 16 16 16 16 16 16 16 16 16 17 17 17 17 17 16 16 16 16 16 16 17 16 16 17 17 17 17 17 17 17 16 16 16 16 16 16 16 16 15
12 11 13 16 16 16 17 17 17 17 17 17 17 17 17 16 16 15 15 15 15 15 15 15 15 15 16 16 16 16 16 16 16 16 16 16 16 16 16 16 15 15
11 11 13 15 16 17 17 17 17 17 16 16 16 16 15 15 15 14 14 14 14 14 14 14 14 14 14 14 14 14 14 14 14 15 16 16 16 16 16 16 16 16
11 13 14 15 16 16 16 16 16 16 16 15 15 14 14 14 14 14 14 14 13 14 14 14 14 14 14 13 13 12 12 13 12 12 13 14 15 16 16 16 16 16
13 14 15 15 15 16 16 15 15 15 15 15 14 13 14 14 14 14 13 13 12 13 14 15 14 14 14 13 12 11 10 10 9 8 8 11 13 15 15 15 15 15
15 15 15 15 15 15 15 15 15 15 15 14 13 13 14 14 14 14 14 13 13 13 14 14 14 14 13 12 11 8 6 6 5 5 6 9 11 12 12 12 13 14
15 15 16 16 15 15 15 15 15 15 14 13 13 13 14 14 13 14 14 14 14 14 13 13 13 13 12 11 9 7 5 4 3 4 6 8 9 10 11 11 12 12
Wind_Speed
20 21 22 22 21 20 19 19 19 18 17 17 17 16 15 15 14 14 12 12 15 16 17 18 18 16 15 16 16 17 18 18 16 14 13 13 13 11 11 12 11 11
20 21 21 21 20 20 18 18 18 18 18 18 16 16 15 15 15 14 12 12 14 15 16 19 19 16 15 16 18 19 19 19 18 17 15 15 15 13 12 11 11 12
21 21 21 21 20 19 18 17 17 16 17 18 18 17 16 15 16 16 15 16 15 14 14 17 18 16 14 16 18 17 17 17 17 16 15 14 14 14 12 10 10 12
22 21 20 20 20 19 18 18 18 17 17 18 19 19 19 18 17 15 15 17 17 15 15 16 17 16 15 15 15 14 14 15 14 14 14 14 14 14 13 12 11 12
20 20 20 20 19 18 18 17 18 18 18 19 19 19 20 19 18 16 16 17 17 17 18 17 16 15 15 16 15 14 14 14 13 14 14 14 13 13 12 11 12 12
17 18 19 18 17 16 16 16 16 18 18 19 19 19 19 18 19 21 20 19 18 18 17 17 17 15 15 16 15 14 13 13 13 14 15 14 14 13 12 12 13 13
17 17 17 17 16 16 16 15 16 17 17 18 18 18 17 17 19 23 23 21 21 20 18 17 17 16 16 17 15 13 12 12 14 14 14 14 14 13 13 14 15 14
17 17 17 18 17 16 16 16 16 16 17 18 18 18 17 16 18 20 22 21 21 21 19 17 16 16 17 17 14 13 13 13 15 15 14 13 13 14 14 16 17 16
17 16 17 17 17 16 17 17 17 16 17 17 17 18 18 16 16 18 20 21 21 20 18 17 16 17 19 16 13 13 13 12 14 14 13 12 11 12 15 17 17 16
16 16 15 16 16 16 17 17 17 16 17 16 16 17 17 16 17 17 16 18 20 20 18 17 17 18 18 17 14 13 11 11 12 12 12 12 11 11 13 15 16 14
16 16 15 15 15 16 17 17 16 16 15 15 16 16 15 15 16 15 13 14 16 18 19 18 17 16 17 16 13 11 11 10 11 11 12 11 11 12 13 14 14 13
15 15 13 13 14 15 16 15 15 14 14 16 16 14 14 15 15 13 12 13 14 16 17 16 15 15 15 14 11 9 10 10 10 10 10 10 11 12 13 13 14 13
12 12 12 12 13 13 13 13 13 13 13 14 14 14 15 14 13 12 12 12 13 14 13 13 13 13 13 11 9 9 10 10 9 10 10 10 11 11 12 13 13 13
10 11 12 12 12 11 11 12 11 11 11 11 12 13 13 12 11 11 10 10 11 11 11 12 12 12 11 9 10 12 13 10 9 9 9 10 10 10 10 10 11 11
9 10 10 10 10 10 10 10 9 8 7 8 10 9 9 8 8 8 8 8 10 10 11 11 11 11 9 8 10 12 11 9 8 8 8 9 10 11 10 10 10 10
8 7 6 6 6 7 7 7 7 7 7 7 7 6 6 7 7 9 9 9 10 11 11 12 12 11 10 10 11 11 9 8 8 8 9 10 11 12 11 10 10 10
7 5 4 4 4 4 5 6 7 7 6 5 6 6 7 7 7 9 9 9 9 11 12 12 12 12 13 12 12 12 10 9 9 9 10 10 11 12 11 11 11 11
8 5 4 4 4 5 6 7 8 9 7 7 7 8 8 8 7 8 8 8 9 10 11 11 10 11 13 13 12 12 11 10 9 10 11 11 11 11 10 10 11 12
8 5 4 4 4 5 6 7 8 8 7 7 8 8 9 8 6 6 6 6 7 7 8 8 8 9 10 11 11 11 11 11 10 11 11 11 10 9 9 9 10 11
8 7 5 5 3 4 6 7 7 7 8 8 8 7 7 6 5 4 3 3 3 5 8 8 8 9 9 9 10 10 11 12 12 12 12 11 9 8 9 9 9 10
9 9 9 8 6 5 7 7 6 7 8 8 8 7 7 7 7 7 7 7 7 5 9 10 10 11 12 12 12 12 12 12 12 12 12 11 8 7 10 11 10 10
11 12 12 11 10 8 7 7 7 7 6 6 8 9 9 9 9 9 10 12 13 9 9 12 12 13 14 15 15 15 15 14 14 14 14 12 8 6 9 11 9 10
14 13 12 11 11 10 9 9 9 8 9 9 9 10 9 8 8 9 9 12 14 11 9 12 12 13 14 15 16 16 15 15 15 15 16 15 12 11 13 13 11 11
14 13 12 12 12 12 13 13 12 11 11 12 11 9 8 7 6 7 8 9 11 11 9 12 12 12 13 14 15 15 13 12 13 12 12 14 15 15 17 17 16 16
13 13 13 12 12 13 13 12 12 13 13 14 12 10 9 8 7 6 4 4 6 9 10 13 14 13 15 16 15 14 11 9 9 8 7 10 13 15 15 15 14 15
13 13 13 13 13 12 12 12 13 14 15 14 11 10 10 11 11 9 8 8 8 9 10 11 14 15 15 15 14 13 10 8 7 7 7 8 9 9 9 7 7 11
Wind_Direction
223 225 229 231 233 234 233 233 236 238 238 233 228 227 230 232 236 237 237 243 243 243 247 248 248 254 258 257 254 258 264 264 262 262 258 257 257 253 256 265 265 258
224 226 227 230 233 234 235 235 237 238 239 236 233 235 236 234 233 235 242 247 247 247 253 252 252 259 266 263 259 260 262 262 260 260 259 255 253 253 256 262 268 266
225 225 227 231 234 235 236 236 238 239 241 241 240 240 242 241 235 228 230 239 242 245 253 256 255 259 263 259 258 262 263 261 257 255 257 256 255 257 258 260 268 271
225 225 229 234 236 238 241 241 241 240 241 244 244 243 243 244 240 230 229 237 239 240 246 253 256 256 258 259 263 270 270 265 260 258 260 261 259 257 257 260 264 270
227 229 233 237 239 243 244 244 246 245 245 246 244 243 241 241 241 235 233 235 237 243 245 247 256 259 258 261 264 269 271 268 265 265 267 266 265 260 258 261 262 268
228 231 237 241 241 244 245 248 251 250 248 243 239 240 240 238 239 237 238 238 238 247 249 244 249 254 256 259 260 262 268 271 271 272 271 269 266 263 258 256 255 258
228 230 236 242 244 246 250 253 257 254 249 243 239 242 244 242 239 237 239 242 244 253 257 250 248 249 255 260 260 260 267 275 279 276 271 268 265 263 258 250 247 246
230 230 234 241 247 253 257 260 260 257 251 248 247 247 243 240 239 236 235 238 246 254 256 252 249 247 252 256 256 261 270 278 282 278 270 269 270 266 257 250 247 245
231 235 236 240 247 255 260 261 261 257 253 251 249 245 241 239 241 240 234 233 240 245 247 248 247 245 249 251 250 260 270 274 278 278 274 270 269 267 260 256 254 252
230 234 234 237 247 255 260 261 259 255 251 248 245 244 245 246 247 246 237 233 236 238 242 249 248 245 249 251 250 258 268 272 275 278 276 270 263 262 261 258 256 257
228 231 234 241 249 254 258 258 253 250 248 245 242 244 248 249 248 247 240 236 239 239 239 245 248 247 245 245 249 261 272 278 281 277 271 264 258 259 261 259 257 260
227 230 237 245 250 252 254 253 251 250 249 247 245 248 252 249 244 240 236 234 234 233 235 239 244 247 245 245 253 269 272 274 279 277 270 264 262 266 270 267 262 260
231 237 243 245 247 251 252 250 249 247 247 250 252 252 251 244 235 231 227 224 223 225 230 233 236 243 248 250 259 272 272 271 273 274 271 268 268 270 270 267 263 262
221 228 233 237 245 251 248 246 245 242 245 248 243 242 242 234 225 224 219 216 222 227 230 233 239 248 253 256 268 274 274 273 269 266 264 265 268 268 266 264 265 268
204 213 225 234 246 249 238 233 228 220 223 226 222 231 246 237 216 210 212 219 226 223 225 232 240 248 251 255 264 269 269 268 265 264 267 271 275 274 270 268 268 269
195 207 222 227 237 238 222 211 206 200 199 202 205 219 241 236 211 203 209 221 223 216 221 234 242 247 250 252 257 260 263 267 268 269 272 275 279 279 278 278 277 273
180 184 191 196 208 208 189 175 178 188 194 193 191 203 219 223 218 215 216 222 224 218 222 231 238 243 246 248 253 257 261 267 272 275 276 276 277 279 281 284 284 280
166 166 167 172 176 172 169 170 171 172 180 192 194 199 209 213 218 223 223 227 229 226 228 232 239 245 248 250 254 259 264 266 266 269 274 276 274 275 280 282 284 287
160 162 166 173 167 159 165 179 181 173 175 186 183 182 189 190 189 195 209 229 238 241 245 248 253 255 255 256 256 258 260 258 255 258 265 273 277 279 283 283 285 289
162 169 181 187 180 155 154 168 174 163 160 162 158 165 175 165 154 166 206 248 265 271 270 269 272 271 266 262 259 256 256 256 255 257 257 260 269 284 293 290 286 287
175 186 189 184 177 162 153 153 151 147 153 158 162 175 183 176 183 200 214 206 192 224 268 272 276 278 274 270 266 263 264 263 259 258 255 250 259 288 299 293 287 284
189 195 193 185 177 165 155 156 158 162 179 192 191 199 204 202 203 207 216 214 201 205 251 262 264 271 273 273 271 269 271 268 261 255 250 242 238 258 275 278 282 280
192 193 191 186 178 172 172 181 191 197 206 212 209 206 206 205 201 194 203 214 205 201 234 253 256 263 268 271 274 273 272 268 263 258 251 242 233 233 244 250 255 259
189 188 188 186 182 184 188 194 202 205 208 215 209 192 186 192 195 195 203 205 190 185 219 247 253 259 265 271 277 279 278 272 267 264 256 243 233 233 242 248 252 256
186 188 189 189 189 192 193 197 202 205 215 222 206 176 174 189 186 186 209 209 181 181 208 234 244 253 263 273 281 286 292 287 273 263 247 234 231 236 246 252 255 260
187 190 192 193 193 195 196 199 204 211 221 222 196 167 180 197 187 179 191 206 213 210 209 225 243 252 261 273 283 292 298 293 269 250 238 235 237 238 247 261 274 273
Height
1532 1533 1535 1536 1537 1538 1540 1540 1541 1541 1541 1542 1542 1543 1544 1546 1547 1547 1548 1550 1553 1554 1553 1554 1554 1554 1555 1556 1556 1556 1557 1558 1558 1559 1559 1559 1559 1559 1560 1561 1562 1562
1531 1532 1533 1535 1536 1537 1538 1539 1539 1539 1539 1540 1541 1542 1543 1544 1545 1545 1546 1548 1551 1552 1552 1553 1553 1553 1554 1554 1555 1555 1556 1556 1556 1557 1557 1558 1558 1558 1558 1559 1560 1561
1530 1531 1532 1533 1534 1535 1536 1537 1538 1538 1538 1539 1540 1541 1542 1543 1544 1545 1545 1547 1549 1551 1552 1552 1552 1552 1553 1553 1553 1554 1554 1554 1554 1555 1555 1556 1556 1556 1557 1558 1558 1559
1529 1530 1531 1532 1532 1533 1535 1535 1536 1536 1537 1538 1539 1540 1540 1541 1543 1543 1543 1545 1548 1550 1551 1551 1551 1551 1552 1552 1552 1552 1552 1552 1552 1553 1553 1554 1554 1555 1555 1556 1556 1557
1527 1528 1529 1530 1531 1531 1532 1533 1534 1535 1535 1536 1537 1538 1538 1539 1540 1541 1541 1543 1545 1548 1549 1550 1551 1551 1550 1550 1549 1549 1550 1550 1551 1551 1551 1551 1552 1552 1553 1553 1553 1554
1526 1526 1527 1528 1529 1530 1530 1531 1532 1532 1533 1534 1535 1536 1536 1537 1538 1539 1540 1541 1543 1546 1547 1548 1549 1549 1549 1548 1547 1547 1548 1548 1549 1548 1548 1548 1549 1549 1550 1550 1550 1550
1524 1524 1525 1526 1527 1528 1528 1529 1530 1530 1531 1532 1533 1534 1534 1535 1536 1537 1538 1539 1541 1544 1545 1547 1548 1547 1547 1545 1545 1545 1546 1547 1547 1547 1546 1546 1546 1546 1547 1546 1546 1546
1522 1523 1524 1524 1525 1526 1526 1527 1528 1528 1529 1530 1531 1532 1532 1533 1534 1535 1536 1537 1539 1542 1543 1545 1545 1545 1545 1544 1544 1544 1544 1545 1545 1545 1545 1544 1544 1544 1543 1543 1543 1543
1520 1521 1523 1523 1523 1524 1524 1525 1526 1527 1528 1528 1529 1530 1531 1532 1533 1533 1534 1535 1537 1539 1540 1541 1542 1543 1543 1543 1542 1542 1542 1542 1543 1543 1543 1543 1542 1542 1541 1540 1541 1542
1519 1520 1521 1521 1521 1522 1523 1524 1525 1526 1527 1527 1528 1529 1530 1530 1531 1532 1532 1532 1533 1535 1537 1539 1540 1541 1541 1541 1540 1540 1539 1539 1540 1540 1541 1541 1540 1539 1539 1538 1539 1541
1517 1518 1519 1519 1520 1520 1521 1522 1523 1524 1525 1526 1527 1528 1528 1529 1530 1530 1530 1529 1531 1534 1536 1538 1539 1539 1539 1539 1539 1539 1538 1537 1538 1539 1539 1539 1538 1537 1536 1537 1538 1538
1515 1516 1517 1517 1518 1519 1519 1520 1521 1522 1524 1525 1526 1527 1527 1528 1528 1528 1528 1529 1531 1534 1536 1537 1537 1537 1538 1538 1538 1538 1537 1537 1537 1537 1537 1537 1537 1536 1535 1536 1536 1536
1513 1514 1515 1515 1516 1517 1517 1518 1519 1521 1522 1524 1524 1525 1526 1527 1527 1527 1528 1529 1531 1533 1535 1535 1535 1536 1536 1536 1536 1536 1536 1535 1535 1535 1535 1535 1535 1534 1534 1534 1535 1535
1512 1513 1514 1515 1515 1514 1515 1516 1517 1518 1520 1521 1522 1524 1525 1526 1527 1527 1528 1529 1530 1531 1533 1533 1533 1534 1534 1534 1534 1534 1534 1534 1533 1533 1533 1533 1533 1533 1533 1533 1533 1534
1511 1512 1513 1513 1512 1512 1513 1514 1516 1516 1516 1518 1521 1523 1526 1528 1528 1528 1528 1528 1529 1529 1531 1532 1532 1531 1531 1531 1532 1533 1533 1532 1532 1532 1532 1532 1532 1531 1532 1532 1532 1532
1509 1510 1510 1510 1510 1510 1512 1514 1516 1515 1514 1516 1518 1522 1527 1529 1529 1528 1528 1527 1527 1528 1529 1530 1530 1530 1530 1530 1532 1532 1531 1531 1531 1530 1530 1530 1530 1530 1530 1530 1531 1531
1506 1507 1508 1508 1509 1510 1511 1513 1516 1515 1514 1514 1516 1520 1525 1527 1527 1527 1526 1526 1526 1527 1528 1528 1528 1529 1529 1530 1530 1530 1530 1530 1529 1529 1528 1528 1529 1529 1529 1529 1529 1530
1505 1505 1506 1507 1508 1510 1511 1513 1514 1515 1515 1516 1517 1520 1523 1525 1526 1526 1525 1525 1526 1526 1527 1527 1527 1528 1528 1528 1529 1528 1528 1528 1528 1528 1527 1527 1527 1528 1528 1528 1527 1528
1503 1504 1505 1506 1508 1509 1511 1512 1513 1515 1516 1517 1519 1521 1523 1525 1525 1526 1525 1525 1525 1525 1524 1524 1525 1525 1526 1526 1526 1526 1526 1526 1526 1526 1526 1526 1526 1526 1527 1526 1526 1526
1503 1503 1504 1505 1507 1508 1510 1511 1512 1514 1516 1517 1519 1520 1522 1524 1525 1526 1526 1526 1525 1523 1522 1522 1523 1524 1524 1524 1524 1524 1524 1524 1524 1524 1524 1524 1524 1525 1525 1525 1525 1525
1502 1503 1504 1505 1506 1508 1509 1510 1511 1513 1515 1516 1518 1519 1521 1523 1524 1525 1525 1525 1525 1523 1521 1521 1522 1522 1522 1522 1522 1522 1522 1522 1522 1522 1521 1522 1523 1523 1523 1523 1523 1523
1502 1503 1504 1505 1507 1508 1509 1510 1511 1512 1514 1515 1517 1518 1520 1521 1522 1523 1523 1523 1523 1523 1521 1521 1521 1520 1520 1520 1519 1519 1519 1519 1519 1519 1519 1519 1521 1522 1522 1521 1521 1522
1503 1504 1505 1506 1507 1508 1510 1511 1511 1512 1513 1514 1515 1516 1518 1519 1520 1521 1521 1520 1520 1521 1519 1518 1518 1518 1517 1517 1516 1516 1516 1515 1515 1516 1516 1517 1518 1519 1519 1519 1520 1520
1503 1504 1505 1506 1507 1508 1509 1510 1510 1511 1511 1512 1513 1514 1516 1517 1518 1518 1518 1517 1517 1518 1517 1515 1515 1515 1514 1514 1514 1513 1513 1513 1513 1513 1514 1514 1515 1516 1516 1517 1518 1518
1504 1505 1505 1506 1507 1508 1508 1509 1510 1510 1510 1511 1512 1513 1514 1515 1515 1516 1516 1515 1514 1515 1514 1512 1512 1512 1511 1511 1511 1511 1511 1510 1510 1510 1511 1512 1513 1514 1514 1515 1516 1516
1504 1505 1505 1506 1507 1507 1508 1509 1509 1509 1509 1510 1511 1512 1512 1513 1513 1513 1513 1512 1512 1512 1511 1510 1509 1509 1509 1509 1509 1508 1508 1508 1508 1508 1509 1509 1511 1512 1513 1514 1515 1514